This is the latest recevied weather packets stored in our database for station/object K5KHP. If no packets are shown the sender has not sent any weather packets the latest 10 day(s).
| Time | Temp. | Humidity | Pressure | Rain* | Wind** | Luminosity | Snow |
|---|---|---|---|---|---|---|---|
| 1777520152 | 15.56° C | 87% | 1014.2 hPa | 0 mm | - | 0 W/m² | - |
| 1777519850 | 16.11° C | 86% | 1014.2 hPa | 0 mm | - | 0 W/m² | - |
| 1777519547 | 16.11° C | 85% | 1014.2 hPa | 0 mm | - | 0 W/m² | - |
| 1777519243 | 16.67° C | 82% | 1014 hPa | 0 mm | - | 0 W/m² | - |
| 1777518939 | 16.67° C | 80% | 1013.9 hPa | 0 mm | - | 0 W/m² | - |
| 1777518636 | 16.67° C | 78% | 1013.7 hPa | 0 mm | - | 0 W/m² | - |
| 1777518332 | 17.22° C | 73% | 1013.8 hPa | 0 mm | - | 0 W/m² | - |
| 1777518028 | 17.78° C | 70% | 1013.7 hPa | 0 mm | - | 0 W/m² | - |
| 1777517724 | 17.78° C | 68% | 1013.7 hPa | 0 mm | - | 0 W/m² | - |
| 1777517420 | 17.78° C | 67% | 1013.5 hPa | 0 mm | - | 0 W/m² | - |
| 1777517115 | 17.78° C | 66% | 1013.7 hPa | 0 mm | - | 0 W/m² | - |
| 1777516812 | 17.78° C | 66% | 1013.5 hPa | 0 mm | - | 0 W/m² | - |
| 1777516508 | 18.33° C | 65% | 1013.5 hPa | 0 mm | - | 2 W/m² | - |
| 1777516204 | 18.33° C | 65% | 1013.5 hPa | 0 mm | - | 5 W/m² | - |
| 1777515901 | 18.33° C | 65% | 1013.5 hPa | 0 mm | - | 7 W/m² | - |
| 1777515597 | 18.33° C | 65% | 1013.1 hPa | 0 mm | - | 10 W/m² | - |
| 1777515294 | 18.89° C | 64% | 1013.3 hPa | 0 mm | - | 13 W/m² | - |
| 1777514990 | 18.89° C | 64% | 1013.2 hPa | 0 mm | - | 16 W/m² | - |
| 1777514687 | 18.89° C | 63% | 1013.3 hPa | 0 mm | - | 19 W/m² | - |
| 1777514384 | 18.89° C | 62% | 1013.2 hPa | 0 mm | - | 22 W/m² | - |
| 1777514080 | 18.89° C | 60% | 1013.5 hPa | 0 mm | - | 24 W/m² | - |
| 1777513778 | 18.89° C | 62% | 1013.4 hPa | 0 mm | - | 26 W/m² | - |
| 1777513475 | 18.89° C | 61% | 1013.6 hPa | 0 mm | - | 30 W/m² | - |
| 1777513172 | 18.89° C | 62% | 1013.5 hPa | 0 mm | - | 52 W/m² | - |
| 1777512867 | 19.44° C | 62% | 1013.6 hPa | 0 mm | - | 69 W/m² | - |
* Rain latest hour (hover to see other rain measurements)
** Current wind speed in m/s (hover to see current wind gust speed)